Location: *
(2.5500°S, 65.9667°W)
Time: 22:37:58
(UTC+00:00)

SRMSAT - Pass Details

Date: 07 July 2022
Orbit: 848 x 865 km, 20.0° (Epoch: 07 August)

Event Time Altitude Azimuth Distance (km) Brightness Sun altitude
Exits shadow 09:08:58 27° 209° (SSW) 1,569 ? -19.4°
Maximum altitude 09:09:44 28° 196° (SSW) 1,542 ? -19.2°
Drops below altitude 10° 09:14:43 10° 138° (SE) 2,465 ? -18.1°
Sets 09:17:39 0° 127° (SE) 3,403 ? -17.4°
